This is the latest recevied weather packets stored in our database for station/object KF6ILA. If no packets are shown the sender has not sent any weather packets the latest 10 day(s).
| Time | Temp. | Humidity | Pressure | Rain* | Wind** | Luminosity | Snow |
|---|---|---|---|---|---|---|---|
| 1788120665 | 29.44° C | 36% | 1016.1 hPa | 0 mm | - | 947 W/m² | - |
| 1788120071 | 29.44° C | 35% | 1016.1 hPa | 0 mm | - | 956 W/m² | - |
| 1788119774 | 29.44° C | 35% | 1016 hPa | 0 mm | - | 954 W/m² | - |
| 1788119180 | 29.44° C | 34% | 1016.2 hPa | 0 mm | - | 956 W/m² | - |
| 1788118883 | 30° C | 33% | 1016.1 hPa | 0 mm | - | 960 W/m² | - |
| 1788118289 | 30° C | 33% | 1016.3 hPa | 0 mm | - | 954 W/m² | - |
| 1788117695 | 29.44° C | 33% | 1016.2 hPa | 0 mm | - | 954 W/m² | - |
| 1788116804 | 29.44° C | 32% | 1016.4 hPa | 0 mm | - | 942 W/m² | - |
| 1788116210 | 28.89° C | 33% | 1016.5 hPa | 0 mm | - | 937 W/m² | - |
| 1788115913 | 28.89° C | 33% | 1016.6 hPa | 0 mm | - | 933 W/m² | - |
| 1788114428 | 28.89° C | 33% | 1016.8 hPa | 0 mm | - | 900 W/m² | - |
| 1788113834 | 28.89° C | 32% | 1016.9 hPa | 0 mm | - | 886 W/m² | - |
| 1788113537 | 28.89° C | 32% | 1016.9 hPa | 0 mm | - | 877 W/m² | - |
| 1788113240 | 28.89° C | 31% | 1016.9 hPa | 0 mm | - | 868 W/m² | - |
| 1788112943 | 28.33° C | 31% | 1016.8 hPa | 0 mm | - | 860 W/m² | - |
| 1788112052 | 28.33° C | 30% | 1016.7 hPa | 0 mm | - | 831 W/m² | - |
| 1788111458 | 27.78° C | 30% | 1016.7 hPa | 0 mm | - | 809 W/m² | - |
| 1788111161 | 27.78° C | 29% | 1016.7 hPa | 0 mm | - | 798 W/m² | - |
| 1788110567 | 27.78° C | 31% | 1016.4 hPa | 0 mm | - | 777 W/m² | - |
| 1788109973 | 27.78° C | 31% | 1016.4 hPa | 0 mm | - | 752 W/m² | - |
| 1788109082 | 27.22° C | - | - | - | - | - | - |
| 1788108785 | 27.22° C | 34% | 1016.3 hPa | 0 mm | - | 696 W/m² | - |
| 1788108191 | 26.67° C | 35% | 1016.2 hPa | 0 mm | - | 666 W/m² | - |
| 1788107894 | 26.67° C | 36% | 1016.2 hPa | 0 mm | - | 649 W/m² | - |
| 1788107597 | 26.11° C | 37% | 1016.1 hPa | 0 mm | - | 638 W/m² | - |
* Rain latest hour (hover to see other rain measurements)
** Current wind speed in m/s (hover to see current wind gust speed)